Flag for United Kingdom Weather past 2 weeks in Edinburgh, Scotland, United Kingdom

Now
50 °F

Light rain. Partly sunny.


Feels Like: 43 °F
Forecast: 45 / 53 °F
Wind: 24 mph from Southwest

Location: Edinburgh Airport

Current Time: Dec 21, 2014 at 11:51:43 AM

Latest Report: Dec 21, 2014 at 11:20 AM


Visibility: N/A

Pressure: 29.80 "Hg

Humidity: 94%

Dew point: 48 °F

Location of EdinburghLocation

Historic Weather in Edinburgh — Graph

°F

Edinburgh temperature yesterday

Maximum temperature yesterday: 46 °F (at 12:50 PM)
Minimum temperature yesterday: 41 °F (at 12:20 AM)
Average temperature yesterday: 43 °F

Past Weeks' High & Low Weather Summary

 TemperatureHumidityPressure
High52 °F (Dec 9, 2:50 PM)100% (Dec 9, 2:20 AM)30.24 "Hg (Dec 9, 2:20 AM)
Low27 °F (Dec 9, 2:20 AM)66% (Dec 10, 6:20 PM)29.15 "Hg (Dec 12, 2:50 AM)
Average40 °F86%29.62 "Hg
* Reported Dec 6 10:20 AM — Dec 21 10:50 AM, Edinburgh, Weather by CustomWeather, © 2014

Note: Actual official high and low records may vary slightly from our data, if they occured in-between our weather recording intervals... More about our weather records

Advertising

Edinburgh weather history for previous 24 hours

 ConditionsComfort  
Time TempWeatherWind HumidityBarometerVisibility
10:50 AM
Dec 21
50 °FLight rain. Partly sunny.26 mph88%29.83 "Hg6 mi
10:20 AM50 °FPartly sunny.24 mph88%29.83 "HgN/A
9:50 AM48 °FPartly sunny.22 mph87%29.83 "HgN/A
9:20 AM48 °FPartly sunny.22 mph87%29.86 "Hg6 mi
8:50 AM48 °FLight rain. Partly sunny.21 mph87%29.89 "Hg5 mi
8:20 AM48 °FPassing clouds.18 mph87%29.89 "HgN/A
7:50 AM46 °FPassing clouds.20 mph93%29.92 "HgN/A
7:20 AM48 °FPassing clouds.20 mph82%29.92 "HgN/A
6:50 AM46 °FPassing clouds.17 mph87%29.92 "HgN/A
6:20 AM46 °FOvercast.22 mph87%29.95 "HgN/A
5:50 AM45 °FOvercast.20 mph93%29.95 "HgN/A
5:20 AM45 °FOvercast.18 mph87%29.98 "HgN/A
4:50 AM45 °FLight rain. Overcast.17 mph87%30.01 "HgN/A
4:20 AM45 °FLight rain. Overcast.15 mph87%30.04 "Hg5 mi
3:50 AM45 °FLight rain. Overcast.17 mph87%30.04 "HgN/A
3:20 AM45 °FLight rain. Partly cloudy.20 mph87%30.07 "HgN/A
2:50 AM45 °FLight rain. Partly cloudy.15 mph87%30.09 "Hg5 mi
2:20 AM45 °FPassing clouds.20 mph87%30.09 "HgN/A
1:50 AM45 °FPassing clouds.18 mph87%30.09 "HgN/A
1:20 AM45 °FPassing clouds.15 mph87%30.09 "HgN/A
12:20 AM45 °FPassing clouds.12 mph87%30.12 "HgN/A
11:50 PM
Dec 20
45 °FPassing clouds.15 mph87%30.15 "HgN/A
11:20 PM45 °FPassing clouds.14 mph87%30.15 "HgN/A
10:50 PM45 °FPassing clouds.14 mph87%30.15 "HgN/A
10:20 PM45 °FPassing clouds.14 mph87%30.18 "HgN/A
9:20 PM43 °FClear.7 mph87%30.18 "Hg10 mi
8:50 PM41 °FPassing clouds.8 mph93%30.18 "HgN/A
8:20 PM43 °FPassing clouds.7 mph93%30.21 "HgN/A
7:50 PM43 °FPassing clouds.9 mph87%30.21 "HgN/A
7:20 PM43 °FQuite cool.10 mph87%30.21 "HgN/A
6:50 PM43 °FClear.10 mph81%30.21 "Hg10 mi
6:20 PM43 °FClear.13 mph81%30.18 "Hg10 mi
5:50 PM43 °FClear.13 mph81%30.18 "Hg10 mi
5:20 PM43 °FPassing clouds.14 mph81%30.18 "HgN/A
4:50 PM43 °FPassing clouds.10 mph81%30.18 "HgN/A
4:20 PM43 °FClear.7 mph76%30.18 "Hg10 mi
3:50 PM43 °FClear.9 mph76%30.15 "Hg10 mi
3:20 PM43 °FSunny.8 mph76%30.15 "Hg10 mi
2:50 PM43 °FSunny.13 mph81%30.15 "Hg10 mi
2:20 PM45 °FSunny.9 mph71%30.12 "Hg10 mi
1:50 PM45 °FPassing clouds.10 mph71%30.12 "HgN/A
1:20 PM45 °FPassing clouds.12 mph71%30.12 "HgN/A
12:50 PM46 °FPassing clouds.13 mph66%30.09 "HgN/A
12:20 PM45 °FQuite cool.15 mph71%30.09 "HgN/A
11:20 AM45 °FPassing clouds.15 mph71%30.07 "HgN/A
Weather by CustomWeather, © 2014

See weather overviewHow to use our weather pages